Wind_Speed
36 35 33 29 33 34 32 30 28 31 32 29 26 25 25 25 23 21 19 22 25 24 23 22 21 22 21 21 22 22 23 22
38 44 40 38 36 38 37 34 32 32 32 30 27 26 26 27 25 22 20 17 18 22 23 23 23 25 25 25 26 26 23 23
33 36 41 44 43 42 42 39 38 35 33 32 29 29 25 26 27 23 23 21 20 18 18 21 24 27 29 29 29 27 25 25
38 35 37 36 43 46 45 44 41 40 36 37 35 34 29 27 27 26 25 24 23 22 20 23 27 25 25 27 28 27 28 28
41 40 40 37 35 36 46 47 47 45 41 40 39 35 31 29 29 29 28 26 26 25 24 26 25 25 26 27 27 26 27 25
48 43 44 41 37 37 38 48 51 50 45 42 42 41 36 33 33 32 30 29 28 27 28 30 29 26 29 20 29 29 31 30
45 49 44 46 43 40 40 48 52 54 50 45 45 42 39 36 35 34 33 32 28 29 31 32 30 29 28 27 28 26 26 26
43 46 50 46 45 43 41 45 52 53 54 47 44 41 39 33 34 34 34 30 29 30 33 30 29 26 25 24 23 23 25 26
28 41 47 50 47 45 41 42 48 50 50 47 44 42 40 37 33 34 32 31 32 32 28 28 26 24 24 23 23 24 26 27
30 27 45 51 48 44 41 41 43 46 46 44 43 40 39 39 34 32 32 32 30 29 27 26 24 25 25 24 25 26 28 30
24 20 32 48 50 43 43 44 47 49 51 45 43 42 40 36 34 34 33 31 31 31 27 25 25 26 26 26 27 28 30 32
35 24 16 36 48 47 46 46 43 45 48 44 43 44 44 41 37 37 35 33 34 30 27 27 26 26 26 27 28 29 32 34
21 34 32 26 42 45 47 45 43 43 48 46 46 44 43 42 40 38 38 36 32 27 25 28 26 25 25 27 32 32 34 38
23 19 30 32 32 41 47 48 46 47 46 47 45 45 43 41 40 38 36 31 27 25 26 27 27 27 30 29 31 33 36 38
16 17 24 27 25 28 40 45 47 46 47 46 46 44 44 41 37 36 32 28 27 27 26 27 26 26 28 29 31 35 36 34
22 22 22 26 27 27 27 31 40 44 48 47 45 44 42 39 37 36 32 29 28 27 31 26 25 26 27 29 32 32 32 31
26 18 18 15 18 25 30 32 35 44 45 44 44 42 38 38 39 38 34 30 30 29 26 24 25 25 27 29 29 29 28 26
27 22 20 13 17 22 22 29 33 36 40 41 42 40 39 40 42 38 33 29 28 27 25 24 24 25 26 26 26 24 23 21
37 36 34 35 29 29 31 33 35 36 37 42 42 41 40 44 44 37 32 28 29 25 25 24 24 25 25 23 22 21 18 16
Wind_Direction
234 233 232 227 226 225 224 226 229 225 221 218 221 222 223 227 229 233 237 246 247 247 249 254 259 264 265 268 271 269 266 269
236 240 237 235 230 226 228 226 226 224 227 225 230 228 231 235 234 238 237 244 247 247 251 255 257 260 262 265 268 269 267 266
240 242 242 241 239 232 228 226 226 219 222 225 230 229 234 231 229 237 240 244 247 251 258 260 261 263 262 262 266 266 263 264
244 240 241 242 242 237 230 226 226 223 223 225 229 230 234 234 233 239 246 250 252 255 266 272 262 259 260 260 262 264 268 271
244 243 238 243 247 245 234 229 225 225 225 228 232 233 240 244 243 246 251 255 259 259 267 278 257 259 264 269 266 272 279 276
248 243 239 243 247 244 238 231 227 225 225 230 233 235 239 244 243 244 249 255 258 263 267 275 262 263 266 265 267 260 276 272
245 243 239 236 239 241 241 230 229 225 224 229 233 236 241 248 245 243 245 254 261 265 267 265 260 262 265 265 266 267 268 269
243 236 231 232 232 237 240 229 226 227 226 229 234 236 241 243 241 241 244 246 256 263 269 257 266 263 262 261 259 259 262 271
248 232 229 226 229 233 236 229 226 229 225 227 231 235 233 234 234 237 238 241 249 258 262 266 261 261 259 256 257 263 271 278
234 235 228 224 221 226 229 228 225 223 223 223 223 226 226 232 236 235 238 246 256 260 262 260 260 258 258 260 267 273 278 283
225 241 240 227 218 220 222 223 228 229 226 224 221 223 221 231 238 237 243 245 252 256 256 255 254 254 257 264 270 277 284 289
239 234 242 218 215 218 217 220 225 224 217 216 221 224 228 233 236 242 241 247 251 253 254 251 250 256 263 268 275 283 287 291
232 233 234 232 223 221 219 220 222 217 215 219 223 226 233 236 244 247 241 247 244 247 251 253 253 262 270 277 279 285 290 294
236 251 232 227 223 224 224 221 220 222 221 223 227 230 235 239 241 239 239 237 238 244 249 254 260 265 271 275 281 285 289 292
229 232 222 225 230 232 227 226 222 223 223 224 229 233 236 239 237 233 229 226 234 246 244 250 254 261 269 275 281 286 289 291
254 245 251 241 236 234 222 234 228 229 228 229 231 234 235 234 229 225 224 228 234 237 242 248 257 264 270 277 285 288 288 289
269 246 240 239 232 228 237 237 229 228 231 231 230 229 232 226 224 219 225 227 234 238 242 252 260 266 276 284 286 286 286 285
258 247 230 226 255 246 241 234 224 222 224 227 226 229 226 223 218 221 229 228 234 238 246 252 259 271 280 280 280 282 282 283
251 248 250 267 267 256 245 232 229 229 229 225 228 224 221 221 217 224 227 228 234 240 243 250 263 273 274 277 279 275 279 290
Height
3111 3113 3115 3117 3119 3122 3124 3127 3130 3133 3135 3137 3140 3142 3144 3147 3148 3150 3152 3153 3155 3156 3158 3158 3160 3161 3162 3163 3163 3163 3163 3163
3103 3104 3107 3110 3112 3114 3117 3120 3123 3126 3129 3133 3135 3137 3140 3142 3144 3146 3147 3149 3150 3151 3152 3153 3155 3156 3157 3158 3158 3159 3159 3159
3094 3096 3097 3101 3104 3107 3110 3114 3116 3120 3123 3127 3129 3132 3134 3136 3139 3141 3143 3145 3146 3147 3147 3148 3150 3150 3151 3152 3152 3152 3152 3152
3083 3087 3088 3091 3092 3097 3101 3105 3109 3114 3117 3120 3123 3126 3129 3131 3134 3136 3137 3139 3141 3142 3142 3143 3144 3145 3145 3145 3146 3146 3145 3146
3073 3075 3078 3079 3082 3086 3092 3097 3101 3105 3109 3113 3117 3121 3124 3127 3129 3131 3132 3133 3134 3136 3136 3137 3138 3138 3139 3139 3139 3140 3139 3139
3059 3062 3067 3071 3073 3076 3080 3087 3091 3095 3100 3106 3110 3114 3117 3119 3121 3123 3126 3127 3129 3130 3131 3131 3131 3132 3132 3133 3133 3133 3133 3133
3044 3050 3056 3059 3061 3066 3070 3074 3080 3085 3092 3097 3101 3107 3108 3111 3114 3116 3119 3121 3122 3123 3124 3125 3125 3125 3126 3126 3126 3127 3127 3127
3027 3034 3039 3047 3049 3055 3060 3064 3069 3076 3083 3088 3093 3099 3101 3104 3106 3109 3112 3113 3116 3117 3117 3117 3118 3118 3118 3119 3120 3121 3122 3122
3017 3021 3028 3034 3040 3045 3050 3055 3061 3067 3074 3080 3085 3090 3094 3097 3099 3102 3105 3107 3110 3110 3110 3110 3110 3111 3112 3114 3115 3116 3116 3116
3011 3013 3016 3021 3029 3036 3041 3046 3053 3059 3066 3072 3077 3082 3086 3088 3092 3096 3098 3100 3103 3103 3102 3103 3104 3106 3108 3109 3110 3111 3110 3109
3005 3006 3007 3011 3020 3027 3032 3038 3044 3051 3057 3063 3069 3074 3078 3081 3084 3088 3090 3094 3095 3095 3095 3097 3098 3100 3101 3102 3103 3103 3103 3102
2996 3000 3001 3003 3011 3017 3025 3031 3037 3042 3049 3055 3060 3065 3069 3072 3076 3079 3082 3085 3086 3087 3089 3091 3092 3094 3095 3096 3096 3096 3096 3094
2987 2992 2995 3000 3005 3010 3017 3024 3030 3036 3041 3047 3051 3057 3060 3064 3068 3071 3075 3077 3078 3080 3082 3085 3087 3088 3090 3090 3090 3089 3088 3086
2981 2984 2987 2993 2997 3002 3009 3016 3022 3027 3034 3038 3043 3047 3052 3055 3059 3063 3066 3068 3071 3073 3075 3077 3080 3082 3082 3083 3083 3081 3079 3077
2979 2982 2985 2989 2992 2996 3001 3007 3013 3020 3024 3029 3033 3040 3043 3048 3052 3055 3058 3061 3064 3066 3069 3071 3072 3073 3074 3074 3074 3072 3070 3068
2977 2978 2981 2984 2987 2991 2995 2999 3004 3010 3015 3020 3025 3030 3036 3039 3043 3047 3051 3053 3056 3059 3062 3063 3064 3065 3065 3065 3065 3063 3062 3060
2970 2971 2975 2978 2981 2984 2988 2992 2996 3001 3006 3011 3016 3021 3026 3030 3034 3038 3042 3045 3049 3052 3054 3056 3057 3057 3058 3057 3056 3055 3053 3051
2964 2966 2969 2971 2975 2977 2980 2984 2987 2992 2996 3001 3006 3011 3016 3021 3026 3030 3034 3037 3042 3044 3047 3049 3050 3050 3050 3048 3047 3046 3045 3043
2956 2959 2961 2963 2966 2968 2971 2974 2979 2982 2987 2992 2997 3002 3007 3011 3016 3022 3025 3030 3033 3037 3039 3041 3042 3042 3041 3040 3039 3039 3037 3035